Temp
-10 -10 -10 -10 -11 -10 -11 -11 -11 -11 -11 -11 -11 -11 -11 -11 -11 -11 -11 -11 -10 -11 -11 -11 -11 -11 -11 -11 -10 -11 -11 -11 -10 -10 -10 -10 -10 -11 -11 -10 -10 -10 -10 -10 -10 -10 -10 -10 -9
-10 -10 -11 -11 -11 -11 -11 -11 -11 -11 -11 -11 -11 -11 -11 -11 -11 -11 -10 -11 -10 -10 -10 -11 -11 -11 -11 -11 -10 -10 -10 -10 -11 -11 -11 -11 -11 -10 -11 -11 -10 -10 -10 -10 -10 -10 -10 -10 -10
-11 -10 -10 -11 -11 -11 -11 -11 -11 -11 -11 -11 -11 -11 -11 -11 -11 -11 -11 -10 -11 -11 -10 -11 -11 -11 -11 -11 -11 -11 -11 -11 -11 -11 -11 -11 -11 -10 -11 -11 -11 -11 -10 -10 -10 -10 -10 -10 -10
-11 -11 -10 -10 -10 -10 -11 -11 -11 -11 -11 -11 -11 -11 -11 -10 -10 -10 -10 -10 -10 -10 -11 -11 -11 -11 -11 -11 -11 -11 -11 -11 -11 -11 -11 -11 -11 -11 -11 -11 -11 -11 -11 -11 -10 -10 -10 -10 -10
-11 -11 -11 -10 -10 -10 -11 -11 -11 -11 -11 -11 -11 -11 -11 -10 -10 -10 -10 -10 -10 -10 -10 -10 -10 -10 -10 -11 -11 -11 -11 -10 -11 -11 -11 -11 -11 -11 -11 -11 -11 -11 -11 -11 -11 -10 -10 -10 -10
-10 -10 -10 -10 -10 -10 -10 -10 -11 -11 -11 -11 -11 -11 -11 -11 -11 -11 -11 -10 -10 -10 -10 -11 -10 -10 -10 -10 -11 -11 -11 -11 -11 -11 -11 -11 -11 -11 -11 -11 -11 -11 -11 -11 -11 -10 -11 -11 -10
-10 -10 -10 -10 -10 -10 -10 -10 -10 -11 -11 -10 -10 -10 -10 -10 -10 -10 -10 -11 -11 -10 -10 -10 -11 -11 -11 -11 -11 -11 -11 -11 -11 -11 -11 -11 -11 -11 -11 -11 -11 -11 -11 -11 -12 -11 -11 -10 -11
-10 -10 -10 -10 -10 -10 -10 -10 -10 -10 -10 -10 -10 -10 -10 -10 -10 -10 -10 -10 -10 -10 -10 -10 -10 -10 -11 -11 -11 -11 -11 -11 -11 -11 -11 -11 -11 -11 -11 -11 -11 -11 -11 -11 -11 -12 -12 -11 -11
-10 -10 -10 -10 -10 -10 -10 -10 -10 -10 -10 -10 -10 -10 -10 -10 -10 -10 -10 -10 -10 -11 -11 -11 -11 -11 -11 -11 -11 -11 -11 -11 -12 -12 -11 -11 -11 -11 -11 -11 -11 -11 -11 -11 -11 -11 -12 -12 -11
-10 -10 -10 -10 -10 -10 -10 -10 -10 -10 -10 -10 -10 -10 -11 -11 -11 -11 -10 -11 -11 -11 -11 -11 -11 -11 -11 -11 -11 -12 -12 -11 -12 -12 -12 -12 -12 -11 -11 -11 -12 -11 -11 -11 -11 -11 -11 -12 -12
-10 -10 -10 -10 -10 -10 -10 -10 -10 -11 -11 -11 -11 -11 -11 -11 -11 -11 -11 -11 -11 -11 -11 -11 -11 -11 -11 -12 -12 -12 -12 -12 -12 -12 -12 -12 -12 -12 -12 -12 -12 -12 -12 -11 -11 -11 -11 -11 -12
-10 -10 -10 -10 -10 -10 -10 -11 -11 -11 -11 -11 -11 -11 -11 -12 -12 -12 -12 -12 -12 -12 -12 -12 -12 -12 -11 -12 -12 -12 -12 -12 -12 -12 -12 -13 -12 -12 -12 -12 -12 -12 -12 -12 -12 -11 -11 -11 -11
-10 -10 -10 -10 -10 -10 -10 -11 -11 -11 -11 -12 -12 -12 -12 -12 -12 -13 -13 -13 -12 -12 -13 -13 -13 -13 -13 -13 -12 -12 -12 -12 -13 -13 -13 -13 -13 -13 -13 -13 -12 -12 -12 -12 -12 -12 -11 -11 -11
-10 -10 -10 -11 -11 -11 -11 -11 -11 -11 -12 -12 -12 -12 -12 -13 -13 -13 -13 -13 -13 -13 -13 -13 -13 -13 -13 -14 -14 -14 -14 -13 -13 -13 -14 -14 -14 -14 -14 -14 -13 -13 -12 -12 -12 -12 -12 -12 -12
-10 -10 -11 -11 -11 -11 -11 -11 -12 -12 -12 -12 -12 -12 -12 -13 -13 -13 -13 -13 -13 -13 -14 -14 -14 -14 -14 -15 -15 -15 -15 -15 -15 -15 -15 -14 -14 -15 -15 -14 -14 -14 -13 -13 -12 -13 -13 -12 -12
-11 -11 -11 -11 -11 -11 -11 -11 -12 -12 -12 -12 -12 -12 -12 -12 -12 -13 -13 -13 -13 -13 -13 -13 -13 -14 -14 -14 -15 -15 -16 -16 -16 -16 -16 -16 -16 -15 -15 -15 -15 -14 -15 -14 -13 -13 -13 -13 -12
-11 -11 -11 -11 -11 -11 -11 -11 -12 -12 -12 -12 -13 -13 -13 -13 -13 -13 -13 -13 -13 -13 -13 -13 -13 -14 -14 -14 -14 -14 -15 -15 -16 -16 -17 -17 -16 -16 -16 -16 -16 -15 -15 -15 -14 -13 -13 -13 -13
-11 -12 -12 -12 -11 -11 -11 -12 -12 -12 -13 -13 -13 -13 -13 -14 -14 -14 -14 -14 -14 -14 -14 -14 -14 -15 -15 -15 -16 -16 -16 -16 -16 -16 -16 -17 -17 -17 -17 -16 -16 -16 -16 -15 -15 -14 -13 -13 -14
-12 -12 -12 -12 -12 -12 -12 -12 -12 -13 -13 -13 -13 -13 -14 -14 -15 -14 -14 -15 -15 -15 -15 -15 -16 -16 -16 -17 -17 -17 -17 -17 -17 -17 -17 -17 -17 -17 -17 -17 -17 -17 -16 -16 -15 -15 -14 -14 -14
-12 -12 -12 -12 -12 -12 -12 -12 -13 -13 -14 -14 -14 -14 -15 -15 -15 -15 -15 -15 -16 -16 -16 -17 -17 -17 -17 -17 -17 -17 -17 -18 -18 -18 -18 -19 -19 -18 -18 -18 -18 -17 -17 -17 -16 -15 -15 -15 -14
-13 -13 -13 -12 -12 -12 -12 -11 -13 -14 -14 -14 -14 -15 -15 -15 -15 -16 -16 -16 -17 -17 -17 -17 -17 -17 -18 -18 -18 -18 -19 -19 -20 -22 -24 -24 -24 -25 -24 -22 -20 -19 -17 -17 -17 -16 -15 -15 -15
-13 -13 -13 -13 -13 -12 -13 -12 -11 -13 -14 -14 -15 -15 -15 -15 -16 -16 -17 -17 -17 -18 -17 -18 -18 -18 -19 -19 -19 -21 -22 -25 -27 -28 -28 -27 -27 -27 -26 -26 -26 -24 -20 -18 -17 -17 -16 -15 -16
-13 -13 -13 -13 -13 -13 -13 -14 -12 -14 -14 -15 -15 -16 -16 -16 -17 -17 -17 -18 -18 -18 -18 -18 -19 -19 -20 -21 -23 -26 -27 -28 -28 -28 -28 -27 -27 -27 -27 -27 -27 -27 -26 -22 -20 -18 -17 -16 -16
-13 -13 -13 -13 -13 -13 -13 -14 -12 -14 -15 -16 -16 -16 -16 -17 -17 -18 -18 -18 -18 -19 -19 -19 -20 -21 -23 -25 -27 -29 -29 -28 -28 -28 -27 -27 -27 -27 -28 -28 -27 -27 -27 -26 -24 -20 -18 -17 -16
-14 -14 -14 -13 -14 -14 -14 -14 -14 -15 -16 -16 -16 -17 -17 -18 -18 -18 -19 -19 -19 -20 -20 -21 -22 -24 -27 -29 -29 -29 -29 -29 -28 -28 -28 -28 -28 -28 -28 -28 -28 -28 -28 -28 -27 -25 -22 -19 -17
-14 -15 -15 -15 -15 -15 -15 -14 -15 -16 -16 -17 -17 -17 -18 -18 -19 -19 -19 -20 -20 -20 -21 -23 -25 -28 -30 -30 -30 -29 -29 -29 -28 -28 -28 -29 -29 -29 -29 -29 -29 -29 -29 -28 -28 -27 -25 -22 -19
-14 -15 -16 -16 -16 -15 -15 -15 -15 -17 -17 -17 -17 -18 -18 -19 -19 -20 -20 -20 -21 -22 -24 -26 -28 -30 -30 -30 -30 -29 -29 -29 -29 -29 -29 -30 -30 -30 -30 -30 -30 -30 -29 -29 -29 -28 -28 -26 -23
-15 -15 -16 -17 -17 -16 -15 -15 -17 -17 -18 -18 -18 -19 -19 -20 -20 -20 -21 -21 -22 -24 -26 -29 -30 -31 -30 -30 -29 -29 -29 -29 -30 -30 -30 -31 -31 -31 -31 -31 -31 -30 -30 -30 -29 -29 -28 -28 -26
-15 -15 -17 -17 -17 -18 -17 -15 -17 -18 -19 -19 -19 -19 -20 -20 -20 -21 -21 -22 -24 -26 -28 -31 -31 -30 -30 -30 -29 -29 -30 -30 -31 -31 -31 -31 -31 -32 -32 -32 -32 -32 -31 -30 -30 -29 -29 -29 -27
-15 -16 -17 -17 -17 -17 -18 -15 -18 -19 -19 -19 -20 -20 -20 -21 -21 -21 -22 -23 -25 -28 -30 -31 -31 -30 -30 -30 -30 -30 -30 -31 -31 -32 -32 -32 -32 -32 -32 -33 -33 -33 -33 -32 -30 -30 -30 -29 -29
Height
5822 5822 5822 5822 5824 5820 5819 5819 5818 5818 5818 5817 5816 5816 5817 5818 5820 5821 5820 5819 5819 5820 5819 5818 5819 5820 5819 5820 5819 5819 5820 5820 5819 5820 5821 5822 5823 5824 5826 5827 5829 5831 5833 5834 5834 5835 5835 5836 5837
5821 5820 5821 5821 5821 5820 5819 5818 5818 5818 5817 5816 5816 5815 5815 5815 5815 5816 5817 5817 5818 5816 5816 5816 5816 5816 5816 5817 5817 5817 5816 5818 5817 5817 5818 5819 5819 5820 5822 5823 5823 5824 5826 5829 5830 5831 5832 5833 5834
5819 5819 5820 5819 5819 5819 5818 5816 5816 5815 5815 5815 5815 5815 5814 5814 5813 5813 5813 5815 5815 5813 5813 5813 5813 5813 5812 5813 5814 5813 5813 5814 5814 5813 5815 5815 5816 5816 5817 5818 5820 5820 5821 5823 5825 5827 5828 5828 5829
5817 5818 5817 5817 5816 5815 5816 5814 5814 5813 5813 5814 5814 5813 5813 5811 5811 5810 5810 5811 5810 5810 5810 5810 5809 5809 5809 5809 5809 5809 5809 5809 5810 5809 5809 5811 5812 5812 5812 5813 5814 5815 5816 5818 5819 5820 5823 5825 5826
5815 5815 5815 5813 5812 5813 5812 5812 5812 5812 5812 5811 5811 5810 5810 5808 5807 5806 5807 5806 5806 5806 5806 5805 5804 5803 5804 5805 5804 5804 5804 5804 5804 5804 5805 5805 5807 5807 5807 5808 5809 5810 5811 5812 5813 5815 5816 5818 5821
5814 5813 5813 5811 5810 5810 5810 5809 5809 5808 5807 5807 5806 5806 5806 5803 5802 5802 5802 5801 5801 5800 5799 5799 5799 5798 5797 5797 5797 5797 5797 5797 5798 5799 5798 5799 5800 5801 5802 5802 5803 5804 5805 5805 5806 5808 5810 5812 5814
5812 5811 5811 5809 5808 5807 5806 5806 5805 5804 5803 5802 5802 5801 5801 5799 5798 5798 5797 5795 5795 5794 5794 5793 5791 5791 5790 5789 5788 5788 5790 5790 5790 5791 5792 5792 5792 5793 5794 5796 5796 5797 5799 5800 5801 5802 5802 5806 5808
5811 5810 5808 5806 5805 5804 5803 5802 5801 5801 5800 5798 5796 5795 5794 5793 5792 5790 5789 5788 5788 5786 5786 5785 5784 5783 5781 5781 5781 5780 5780 5780 5781 5782 5783 5783 5783 5784 5786 5788 5789 5789 5791 5793 5794 5796 5797 5798 5800
5808 5808 5806 5804 5802 5800 5798 5797 5796 5795 5795 5793 5791 5788 5787 5786 5785 5783 5782 5781 5780 5779 5777 5776 5774 5773 5772 5770 5770 5769 5769 5770 5771 5771 5772 5772 5773 5774 5775 5777 5779 5781 5782 5783 5785 5788 5789 5790 5793
5805 5804 5801 5799 5798 5796 5794 5793 5792 5791 5790 5787 5785 5783 5782 5780 5778 5776 5775 5773 5772 5770 5769 5768 5766 5765 5764 5763 5762 5760 5760 5759 5759 5760 5761 5761 5762 5763 5764 5765 5767 5769 5772 5774 5776 5778 5780 5783 5784
5801 5799 5796 5794 5792 5791 5790 5789 5788 5786 5784 5782 5779 5777 5774 5772 5770 5768 5766 5764 5763 5762 5760 5758 5756 5755 5754 5753 5752 5751 5749 5748 5747 5747 5748 5748 5749 5750 5751 5752 5754 5756 5759 5761 5766 5768 5770 5773 5775
5796 5794 5791 5789 5787 5785 5783 5782 5781 5779 5777 5775 5772 5770 5767 5765 5762 5759 5757 5755 5753 5751 5749 5747 5745 5744 5742 5740 5738 5737 5736 5735 5734 5733 5733 5734 5735 5735 5737 5738 5740 5742 5745 5748 5751 5755 5759 5761 5765
5791 5789 5787 5783 5781 5779 5777 5775 5774 5772 5768 5766 5763 5761 5758 5756 5753 5750 5747 5745 5742 5739 5736 5734 5732 5730 5728 5726 5724 5722 5720 5718 5716 5715 5716 5717 5718 5719 5720 5722 5724 5727 5729 5732 5737 5740 5745 5748 5752
5786 5783 5781 5779 5776 5774 5771 5769 5768 5765 5762 5758 5755 5752 5748 5745 5742 5739 5737 5734 5731 5727 5724 5721 5718 5715 5713 5710 5707 5705 5703 5700 5698 5696 5695 5695 5698 5700 5702 5705 5707 5710 5713 5716 5720 5724 5729 5734 5738
5780 5778 5775 5772 5770 5767 5764 5764 5762 5758 5754 5750 5746 5742 5739 5735 5732 5729 5724 5720 5716 5712 5707 5703 5699 5695 5691 5689 5686 5684 5682 5680 5679 5677 5675 5674 5675 5676 5679 5683 5686 5690 5694 5698 5702 5706 5712 5718 5722
5774 5772 5769 5767 5764 5761 5757 5756 5752 5749 5746 5742 5737 5733 5729 5725 5721 5717 5713 5708 5704 5699 5695 5690 5684 5678 5672 5666 5661 5656 5654 5653 5652 5652 5653 5652 5652 5654 5655 5658 5662 5667 5672 5677 5683 5687 5693 5699 5705
5768 5764 5762 5759 5756 5752 5749 5747 5743 5739 5735 5730 5726 5721 5717 5712 5708 5703 5699 5694 5690 5684 5679 5673 5668 5661 5655 5648 5639 5631 5625 5622 5621 5619 5619 5622 5626 5627 5630 5633 5637 5642 5648 5654 5661 5666 5673 5680 5685
5760 5756 5753 5749 5747 5742 5738 5735 5732 5729 5725 5721 5716 5711 5705 5700 5695 5689 5684 5679 5674 5667 5661 5655 5647 5640 5633 5626 5619 5612 5603 5594 5585 5582 5582 5584 5588 5594 5599 5603 5608 5615 5622 5628 5635 5644 5651 5659 5665
5751 5747 5743 5739 5736 5731 5727 5724 5720 5718 5715 5710 5704 5699 5692 5686 5679 5674 5668 5662 5656 5649 5642 5634 5627 5619 5611 5604 5596 5586 5577 5566 5557 5548 5543 5539 5543 5549 5559 5568 5575 5582 5593 5601 5608 5617 5627 5637 5643
5743 5738 5734 5729 5725 5720 5716 5713 5709 5707 5702 5696 5691 5684 5677 5670 5665 5659 5652 5645 5638 5630 5621 5613 5603 5593 5583 5573 5565 5556 5548 5537 5526 5517 5510 5504 5502 5504 5511 5523 5536 5547 5559 5569 5580 5590 5601 5612 5620
5734 5730 5725 5720 5715 5710 5705 5702 5698 5695 5690 5684 5676 5670 5663 5656 5649 5642 5634 5626 5617 5607 5598 5589 5579 5568 5557 5547 5537 5526 5516 5506 5495 5486 5480 5477 5476 5475 5475 5480 5492 5507 5521 5535 5547 5560 5575 5584 5595
5727 5721 5716 5710 5705 5700 5695 5688 5687 5682 5677 5670 5662 5654 5646 5640 5631 5624 5615 5606 5595 5585 5575 5565 5554 5542 5530 5517 5505 5492 5482 5474 5468 5465 5463 5460 5457 5457 5456 5457 5460 5468 5481 5496 5511 5526 5543 5556 5568
5717 5711 5705 5700 5694 5689 5686 5677 5674 5671 5664 5655 5647 5638 5630 5622 5614 5605 5595 5585 5573 5563 5553 5542 5529 5515 5500 5486 5472 5462 5457 5454 5453 5450 5449 5447 5445 5442 5440 5439 5441 5443 5449 5459 5473 5490 5508 5524 5538
5707 5700 5694 5689 5683 5679 5673 5665 5661 5655 5648 5641 5631 5622 5614 5606 5596 5586 5576 5565 5553 5541 5529 5517 5503 5487 5471 5458 5449 5444 5442 5440 5438 5436 5434 5431 5428 5426 5424 5423 5424 5426 5428 5433 5440 5454 5473 5491 5507
5697 5689 5681 5677 5671 5666 5660 5652 5650 5640 5634 5625 5616 5607 5598 5589 5579 5569 5557 5544 5531 5518 5504 5489 5475 5461 5447 5439 5434 5431 5428 5426 5424 5421 5418 5415 5410 5407 5405 5405 5406 5407 5409 5413 5418 5426 5439 5456 5476
5686 5678 5670 5661 5660 5655 5648 5639 5635 5627 5620 5609 5600 5592 5582 5574 5562 5551 5538 5524 5511 5497 5482 5466 5451 5440 5431 5426 5423 5419 5415 5413 5410 5406 5402 5397 5393 5390 5387 5386 5387 5388 5390 5394 5399 5405 5413 5426 5444
5676 5669 5661 5651 5647 5641 5636 5629 5620 5613 5604 5594 5585 5576 5568 5558 5546 5534 5520 5504 5490 5474 5458 5444 5432 5425 5419 5416 5412 5407 5404 5400 5395 5389 5384 5380 5376 5373 5370 5368 5368 5369 5371 5375 5380 5388 5393 5402 5417
5664 5657 5649 5640 5630 5625 5623 5615 5605 5600 5588 5578 5570 5563 5553 5542 5530 5515 5501 5486 5469 5453 5438 5426 5418 5413 5409 5405 5400 5396 5391 5384 5379 5373 5368 5363 5359 5355 5353 5350 5347 5348 5350 5355 5361 5369 5376 5383 5394
5653 5645 5637 5629 5621 5609 5603 5603 5595 5584 5574 5564 5556 5547 5536 5525 5512 5498 5482 5466 5451 5435 5422 5413 5406 5403 5399 5394 5390 5384 5377 5370 5363 5357 5351 5347 5343 5338 5335 5331 5327 5326 5329 5335 5343 5351 5359 5367 5375
5640 5632 5625 5616 5609 5598 5590 5586 5579 5570 5559 5550 5542 5532 5520 5508 5494 5480 5464 5448 5433 5420 5409 5402 5396 5393 5388 5383 5378 5371 5364 5357 5350 5343 5337 5331 5327 5322 5319 5314 5311 5308 5310 5317 5325 5335 5343 5351 5360
Wind_Speed
7 6 5 5 5 4 4 3 4 6 9 13 17 18 17 14 13 16 12 13 16 17 23 23 23 23 25 23 23 23 27 19 13 15 16 15 16 23 21 20 21 21 21 21 20 18 18 18 19
9 7 5 4 5 5 4 3 3 3 1 4 8 11 11 12 14 14 13 14 16 17 21 23 24 25 22 23 23 23 23 22 20 17 18 17 19 17 23 26 23 23 23 23 22 21 20 20 20
10 10 8 6 5 6 7 5 4 4 5 7 8 8 9 11 13 13 12 14 15 17 20 22 22 25 23 22 23 24 24 23 22 21 19 21 20 21 19 21 29 27 25 25 24 24 24 23 21
10 9 9 9 9 9 10 9 8 9 9 10 11 12 13 15 15 17 18 19 18 20 22 23 24 24 24 23 24 23 25 25 27 25 26 23 25 25 24 22 22 27 32 29 28 28 27 26 25
11 9 8 9 11 11 12 13 13 13 13 14 14 15 16 18 19 20 21 22 23 23 23 26 27 30 30 30 29 28 28 27 27 28 30 30 30 28 28 27 27 25 27 29 32 31 31 30 29
10 9 9 10 13 13 13 14 14 15 16 17 17 20 20 23 23 23 24 25 26 27 29 29 30 32 34 34 33 33 32 32 33 34 33 31 32 34 33 30 31 30 30 29 31 32 32 34 32
13 12 11 12 13 13 14 16 17 18 18 19 20 21 22 25 26 28 29 29 31 32 33 35 36 35 35 36 37 37 37 36 37 37 38 39 37 35 36 38 39 37 35 33 34 34 33 34 35
15 14 14 15 16 17 18 19 20 21 22 24 25 26 27 29 30 31 33 35 37 38 39 39 40 41 42 41 41 42 41 41 40 41 42 42 43 41 40 40 40 40 42 41 38 37 38 33 34
17 17 18 17 17 18 20 21 22 23 24 25 27 28 30 32 33 34 35 37 38 40 41 43 43 44 45 46 46 46 47 47 46 46 47 47 47 47 47 46 44 44 43 42 41 41 41 39 34
20 20 20 19 18 19 20 20 22 23 25 28 29 31 32 34 35 36 38 39 40 41 42 43 44 44 45 46 47 48 48 50 51 50 51 51 52 52 52 52 50 48 48 47 44 43 44 45 43
22 21 20 21 21 21 20 21 22 24 26 28 30 32 34 35 38 39 40 41 43 45 46 48 49 50 50 51 52 54 55 55 56 55 55 55 55 55 56 57 57 55 52 51 51 48 46 47 47
22 21 21 23 24 24 23 23 24 26 27 30 32 34 37 39 40 42 44 46 46 48 49 51 52 54 56 59 60 60 61 61 62 63 62 62 61 60 60 59 60 61 60 57 55 54 52 49 50
23 22 23 25 26 26 28 30 30 31 32 33 35 37 39 41 42 44 46 47 49 51 52 54 56 58 59 61 63 66 68 69 69 67 67 67 67 66 67 66 64 64 64 64 61 58 57 55 53
24 25 26 28 29 30 33 34 34 35 36 38 40 42 43 44 46 48 50 51 52 53 56 58 59 61 62 65 66 67 68 71 74 74 75 74 72 71 71 72 71 70 68 68 67 64 62 60 58
28 28 30 31 32 34 37 37 36 38 39 41 43 44 45 47 51 53 55 57 58 61 63 64 67 69 70 70 69 68 70 73 74 76 78 79 80 78 75 74 76 75 74 72 71 69 68 65 64
31 32 33 34 36 38 41 40 39 40 41 42 44 47 50 52 54 55 57 60 63 66 68 71 74 76 78 80 81 82 82 81 80 81 80 82 83 82 81 79 77 81 80 78 76 74 72 69 68
34 36 37 38 39 43 43 43 42 41 41 43 46 49 51 53 55 57 60 63 65 68 71 74 77 79 82 85 90 94 97 96 93 91 89 87 87 87 87 85 84 83 84 84 81 79 77 75 73
35 37 38 41 42 45 46 46 46 44 44 47 50 51 53 55 58 60 62 66 68 71 74 77 80 82 85 89 93 95 97 100 102 101 100 98 94 91 91 91 91 90 88 88 88 85 83 80 78
37 39 41 44 46 47 48 50 50 48 49 49 51 53 56 58 60 62 65 68 70 73 76 79 81 86 89 89 91 93 95 99 103 107 109 109 107 104 99 96 94 94 93 92 92 93 89 86 84
40 42 43 46 48 50 51 52 50 49 50 51 52 56 58 59 62 65 67 69 72 75 79 81 85 88 91 93 95 97 99 102 105 108 110 111 110 110 107 101 97 97 97 97 97 96 96 93 90
42 44 46 47 49 51 51 53 51 50 50 53 54 56 59 60 63 67 69 72 76 80 82 86 88 90 93 96 97 101 104 105 101 94 86 81 78 77 80 85 90 92 99 101 100 101 100 100 96
45 47 46 47 49 51 51 56 55 56 53 55 56 58 60 64 67 69 72 76 79 81 86 88 90 92 96 99 103 101 93 79 61 55 56 56 56 54 55 59 64 71 88 99 103 103 103 105 100
46 45 47 48 49 52 51 55 58 54 55 56 58 62 64 67 69 73 74 78 81 85 88 89 91 95 100 98 91 78 56 48 47 47 48 51 52 53 53 54 53 58 65 86 102 104 106 108 107
47 47 46 49 51 53 54 56 58 57 57 58 61 65 66 69 72 73 77 80 84 87 89 92 95 97 91 82 65 50 46 46 45 47 47 51 53 54 55 57 56 53 57 65 85 104 107 110 112
48 48 51 52 54 56 56 59 58 59 57 60 65 67 71 73 73 77 80 83 85 88 92 94 95 84 76 58 47 46 48 47 45 47 50 53 55 56 56 56 58 58 56 58 64 83 102 110 114
52 51 51 54 55 55 56 61 59 59 59 63 67 71 72 73 76 78 83 85 87 90 92 92 82 71 55 47 46 48 46 44 47 50 52 53 52 51 52 53 56 60 61 58 59 62 80 100 110
52 54 55 58 59 60 60 60 62 62 62 67 70 71 72 76 77 81 84 87 90 91 88 78 69 54 45 44 46 44 43 46 49 51 51 50 49 49 50 53 54 57 63 63 60 59 62 78 98
53 54 56 58 61 62 61 62 66 61 65 69 71 72 73 76 79 82 84 88 89 87 76 66 53 44 42 43 41 41 46 48 50 50 50 49 49 50 48 50 54 57 60 65 62 59 58 63 78
54 57 58 60 61 65 65 63 62 63 66 69 71 71 74 77 80 82 85 88 86 77 65 52 45 42 42 39 40 44 47 49 49 49 48 48 48 50 49 49 49 51 56 62 63 58 57 57 64
58 59 59 59 62 65 65 67 62 65 67 70 70 72 76 78 80 83 85 85 80 67 54 44 42 41 39 38 42 45 47 47 47 46 47 47 46 44 43 43 42 44 48 55 59 58 55 55 57
Wind_Direction
327 341 347 345 333 334 13 353 277 269 259 256 255 269 280 276 257 276 280 264 252 252 252 265 267 271 268 267 273 287 301 297 298 297 295 273 258 248 243 243 245 250 251 251 248 250 252 249 249
310 312 316 320 309 311 321 323 319 336 319 256 256 266 272 269 270 270 267 263 258 256 255 260 270 275 276 270 273 277 278 282 292 286 288 289 279 266 257 248 243 239 242 247 253 252 250 252 249
332 308 306 296 294 293 274 271 253 255 262 268 267 268 267 270 278 280 279 271 273 269 271 271 268 268 272 272 271 275 274 274 274 273 274 274 273 272 271 263 251 242 245 241 242 250 253 254 252
316 324 299 298 287 284 293 283 265 258 258 260 261 262 262 267 269 274 280 278 278 276 280 278 279 277 279 277 273 272 274 274 271 273 269 267 267 268 264 266 260 258 242 242 241 243 245 249 253
309 311 309 285 274 277 281 288 298 301 292 281 277 275 274 277 278 278 276 277 279 276 274 276 277 279 278 276 276 275 273 273 274 271 271 268 263 263 264 262 265 259 255 250 242 239 245 245 246
339 326 318 308 295 289 287 286 289 292 294 291 285 282 281 279 278 278 279 277 276 277 277 274 274 274 276 275 273 274 273 273 273 272 270 267 265 265 260 260 260 260 256 256 252 247 241 244 242
331 327 321 315 307 304 299 293 294 292 290 289 287 285 283 284 288 288 285 282 281 280 279 279 279 275 272 274 274 273 270 269 269 269 270 270 267 264 264 264 262 261 261 257 257 252 248 250 246
317 315 314 313 308 302 295 292 291 291 293 291 289 289 287 286 284 282 280 279 279 278 276 275 274 276 276 274 272 272 271 270 269 269 269 267 269 266 262 262 263 262 260 260 259 255 251 248 249
314 310 309 304 296 292 293 295 295 295 293 291 291 291 290 291 291 288 286 283 279 277 278 278 276 275 273 273 272 272 271 269 266 265 265 266 265 265 264 262 260 261 261 260 259 256 254 250 245
313 309 308 303 299 296 293 292 290 290 289 290 290 289 289 289 288 288 286 286 284 284 284 283 281 279 276 274 273 273 272 271 270 268 265 263 263 262 261 261 259 257 258 261 258 255 254 254 251
309 309 309 309 308 306 303 301 301 300 299 295 292 292 290 287 288 286 285 282 282 281 280 279 279 278 277 276 275 274 273 272 271 271 269 267 264 263 262 261 260 257 255 254 256 256 253 252 253
307 304 306 308 310 309 309 308 308 306 302 298 293 291 289 288 287 285 284 285 284 282 280 280 279 279 279 279 279 277 275 273 271 269 267 265 264 262 261 260 260 260 256 252 251 252 252 251 250
304 301 302 304 306 307 307 308 308 308 303 300 297 295 292 290 289 286 285 284 284 286 285 284 283 281 279 277 275 274 273 273 272 270 267 264 263 261 261 259 257 257 257 254 250 248 248 248 249
304 301 301 302 303 304 303 304 305 303 302 301 299 297 296 294 292 291 291 291 290 288 287 286 284 281 279 279 278 277 275 273 272 272 272 270 266 262 259 258 256 253 253 254 251 248 245 245 245
304 300 299 299 300 302 302 304 305 302 302 302 301 298 296 295 294 294 293 292 292 292 291 291 291 290 289 287 285 282 278 275 273 271 271 269 267 266 262 259 257 255 251 249 250 248 245 242 243
304 302 300 303 304 304 303 305 303 302 301 300 298 296 294 292 291 290 290 289 290 290 290 290 289 289 289 289 289 289 287 284 280 276 272 269 267 264 262 261 257 255 254 249 247 247 245 242 240
304 304 304 304 304 304 305 304 300 299 298 297 294 293 291 290 289 289 289 288 288 288 288 287 286 285 284 285 285 285 285 284 282 281 279 274 270 267 264 261 257 253 251 252 247 244 244 243 239
304 304 303 302 302 302 302 302 301 300 299 298 296 295 293 292 291 290 290 290 290 289 289 287 286 286 286 287 287 287 286 285 284 283 280 276 273 268 263 260 257 253 250 246 249 246 242 241 241
305 304 304 304 306 304 303 303 302 301 302 301 300 298 294 293 291 292 292 292 292 291 290 290 290 290 291 291 290 290 288 287 285 284 283 281 276 272 267 261 255 252 249 246 242 245 244 240 239
306 306 306 305 306 305 304 303 302 303 304 303 302 298 295 293 293 295 295 295 295 295 295 297 297 297 297 297 294 292 290 289 287 284 281 280 279 275 271 266 259 253 247 244 241 239 242 242 238
302 304 304 306 307 306 305 306 304 304 303 303 301 299 297 296 298 298 299 300 300 301 302 302 301 300 298 296 295 294 291 288 284 280 278 277 276 274 272 268 261 252 247 244 240 237 236 239 239
306 306 307 307 307 307 306 307 308 306 307 304 303 301 300 302 302 303 304 305 305 305 305 303 303 301 300 299 296 295 290 286 280 274 274 276 276 275 273 269 263 253 243 239 239 237 234 234 238
306 308 308 308 306 305 307 304 306 309 307 306 306 304 305 304 305 307 307 307 307 306 305 305 304 303 301 300 296 293 286 279 277 275 276 277 277 276 274 274 270 261 249 236 232 232 232 231 233
308 306 307 307 304 303 305 306 309 313 310 309 305 305 305 307 308 309 309 308 308 308 307 306 306 304 303 298 295 287 286 284 283 282 281 280 279 277 273 270 268 266 257 249 236 228 227 229 229
309 307 306 306 305 304 305 307 314 310 311 307 306 307 309 309 311 310 310 309 310 309 308 308 307 305 300 298 290 288 289 288 287 285 285 284 282 279 274 268 263 262 260 254 248 236 227 224 226
305 305 305 304 304 302 305 307 310 310 311 308 308 309 309 312 311 311 311 311 311 309 309 309 308 303 300 293 290 290 289 290 291 290 289 286 283 279 275 271 263 256 255 255 250 245 235 226 223
305 306 306 306 305 304 306 308 309 314 309 309 309 310 313 312 313 313 313 312 311 310 311 309 305 302 296 292 291 290 291 293 294 293 291 287 284 282 278 274 267 260 251 249 250 246 242 233 225
303 303 304 304 302 304 306 308 308 312 311 309 309 312 313 313 313 314 313 312 312 312 311 307 304 299 295 293 292 294 297 299 299 296 292 287 285 282 282 279 272 261 252 245 245 244 241 237 230
303 302 303 304 305 306 307 308 312 310 308 309 311 314 313 313 315 314 313 313 313 313 309 305 300 298 297 295 297 301 302 302 301 298 295 292 289 283 283 284 277 264 247 241 240 241 240 237 232
302 302 303 305 305 305 308 308 311 308 310 310 313 314 313 315 315 315 314 314 315 312 309 303 298 298 297 298 303 304 305 305 304 302 300 298 294 288 288 287 278 266 251 238 236 237 238 236 233